Seaglider sg613 (Marlin) on mission MASSMO 4 Piloting

  • Public vehicle
  • Serial Number sg613
  • Operated by on the MASSMO project

  • Deployed: 2017/06/02 08:00:00 UTC (922 days ago)
  • Recovered: 2017/06/06 00:00:00 UTC (919 days ago)
  • Time at Sea: 3 days
  • Profiles Performed: 39

Near Real-Time Data

 
temperature
salinity
conductivity

Communication Log

# Updated Depth Speed Plots
1180859 2017-06-05 13:24:42 UTC (919 days ago)
1180834 2017-06-05 11:19:48 UTC (919 days ago)
1180778 2017-06-05 09:07:54 UTC (919 days ago)
1180724 2017-06-05 06:51:03 UTC (919 days ago)
1180661 2017-06-05 04:43:05 UTC (919 days ago)
1180593 2017-06-05 02:28:30 UTC (920 days ago)
1180592 2017-06-05 00:26:28 UTC (920 days ago)
1180468 2017-06-04 22:28:47 UTC (920 days ago)
1180413 2017-06-04 20:16:31 UTC (920 days ago)
1180346 2017-06-04 17:42:16 UTC (920 days ago)
1180275 2017-06-04 16:58:22 UTC (920 days ago)
1180257 2017-06-04 16:09:26 UTC (920 days ago)
1180226 2017-06-04 15:33:07 UTC (920 days ago)
1180217 2017-06-04 13:00:03 UTC (920 days ago)
1180133 2017-06-04 11:11:23 UTC (920 days ago)
1180085 2017-06-04 09:29:29 UTC (920 days ago)
1180032 2017-06-04 07:17:29 UTC (920 days ago)
1179971 2017-06-04 05:04:25 UTC (920 days ago)
1179925 2017-06-04 02:54:22 UTC (921 days ago)
1179875 2017-06-04 00:50:51 UTC (921 days ago)